EW4757 Potomac Falls VA US current weather conditions

sailwx.info

Wind from 294

Air temperature 32.2° C
Dewpoint 19.1° C

Last reported at 2020-Aug-05 19:00 UTC.
Time now 2020-Aug-05 19:44 UTC

Location: N 39°02' W 077°25'.
View on Google Maps.

See reports from other nearby stations

  
Tides and Currents Weather Stations Pressure Air Temp Water Temp Dewpoint Dewpoint Depression Visibility Wind Speed Wind Dir Waves Ship Positions
date/time (UTC)wind fromknots sea level pressurealtimeterstation pressurevisibilityair tempwater tempwave heightnotes
2020-Aug-05 19:00 294 32.2
2020-Aug-05 18:45 098 31.1
2020-Aug-05 18:31 110 30.6
2020-Aug-05 18:16 304 31.1
2020-Aug-05 17:45 113 30.6
2020-Aug-05 17:30 020 30.0
2020-Aug-05 17:17 105 30.6
2020-Aug-05 17:01 097 0 gusting 4 29.4
2020-Aug-05 16:45 101 0 gusting 3 28.9
2020-Aug-05 16:31 119 29.4
2020-Aug-05 16:16 101 0 gusting 4 29.4
2020-Aug-05 16:00 120 0 gusting 3 28.9
2020-Aug-05 15:46 105 27.8
2020-Aug-05 15:31 107 28.9
2020-Aug-05 15:15 084 28.3
2020-Aug-05 15:01 287 27.8
2020-Aug-05 14:45 111 27.8
2020-Aug-05 14:16 094 0 gusting 4 26.7
2020-Aug-05 14:00 096 26.7
2020-Aug-05 13:46 310 25.6
2020-Aug-05 13:31 103 25.6
2020-Aug-05 13:01 116 23.9
2020-Aug-05 12:45 105 23.3
2020-Aug-05 12:16 098 22.8
2020-Aug-05 12:00 101 22.2
2020-Aug-05 11:47 102 21.1
2020-Aug-05 11:30 092 19.4
2020-Aug-05 11:15 264 18.9
2020-Aug-05 11:01 264 18.3
2020-Aug-05 10:45 264 18.3
2020-Aug-05 10:16 264 18.3
2020-Aug-05 10:01 264 18.3
2020-Aug-05 09:30 264 18.9
2020-Aug-05 09:00 264 18.9
2020-Aug-05 08:30 264 19.4
2020-Aug-05 08:15 264 18.9
2020-Aug-05 08:03 264 19.4
2020-Aug-05 07:45 264 19.4
2020-Aug-05 07:30 264 19.4
2020-Aug-05 07:17 264 20.0
2020-Aug-05 07:00 264 20.0
2020-Aug-05 06:31 264 20.6
2020-Aug-05 06:15 264 20.6
2020-Aug-05 06:01 264 21.1
2020-Aug-05 05:46 264 21.1
2020-Aug-05 05:16 264 21.7
2020-Aug-05 05:00 264 21.7
2020-Aug-05 04:47 264 21.7
2020-Aug-05 04:30 293 21.7
2020-Aug-05 04:01 293 22.2
2020-Aug-05 03:45 293 22.2
2020-Aug-05 03:31 293 22.8
2020-Aug-05 03:15 293 22.8
2020-Aug-05 02:46 293 22.8
2020-Aug-05 02:30 293 22.8
2020-Aug-05 02:17 293 23.3
2020-Aug-05 01:31 292 24.4
2020-Aug-05 01:15 292 24.4
2020-Aug-05 00:45 292 25.6
2020-Aug-05 00:30 292 26.1
2020-Aug-05 00:18 292 26.7
2020-Aug-05 00:01 292 27.2
2020-Aug-04 23:46 292 27.8
2020-Aug-04 23:30 292 27.8
2020-Aug-04 23:15 292 28.3
2020-Aug-04 23:01 285 28.3
2020-Aug-04 22:45 293 28.9
2020-Aug-04 22:16 293 30.0
2020-Aug-04 22:00 289 31.7
2020-Aug-04 21:31 294 31.7
2020-Aug-04 21:16 281 32.2
2020-Aug-04 21:01 292 0 gusting 3 31.7
2020-Aug-04 20:45 292 31.1
2020-Aug-04 20:32 294 30.0
2020-Aug-04 20:16 293 30.0
2020-Aug-04 20:00 295 1 gusting 4 29.4
2020-Aug-04 19:31 291 29.4
2020-Aug-04 19:15 293 28.9
2020-Aug-04 19:01 291 28.9
2020-Aug-04 18:46 110 28.9
2020-Aug-04 18:15 295 0 gusting 2 27.8
2020-Aug-04 18:00 104 27.2
2020-Aug-04 17:45 294 26.7
2020-Aug-04 17:32 293 25.6
2020-Aug-04 17:16 360 25.6
2020-Aug-04 17:00 295 25.0
2020-Aug-04 16:31 278 23.3
2020-Aug-04 16:15 353 22.8
2020-Aug-04 15:45 283 22.2
2020-Aug-04 15:00 297 21.7
2020-Aug-04 14:31 302 20.6
2020-Aug-04 14:16 091 20.6
2020-Aug-04 13:47 278 0 gusting 6 20.6
2020-Aug-04 13:30 122 0 gusting 6 20.6
2020-Aug-04 13:01 274 1 gusting 7 20.6
2020-Aug-04 12:45 106 0 gusting 5 20.6
2020-Aug-04 12:15 302 20.6
2020-Aug-04 12:00 103 0 gusting 6 20.6
2020-Aug-04 11:31 101 0 gusting 5 20.6
2020-Aug-04 11:15 338 20.6
2020-Aug-04 11:02 098 0 gusting 5 20.6
2020-Aug-04 10:45 314 20.6
2020-Aug-04 10:16 110 20.6
2020-Aug-04 10:01 096 20.6
2020-Aug-04 09:31 103 20.6
2020-Aug-04 09:15 108 20.6
2020-Aug-04 08:46 092 0 gusting 5 21.1
2020-Aug-04 08:30 113 21.7
2020-Aug-04 08:17 113 21.7
2020-Aug-04 08:00 107 21.7
2020-Aug-04 07:45 107 21.7
2020-Aug-04 07:15 107 21.7
2020-Aug-04 07:00 107 21.7
2020-Aug-04 06:46 107 21.1
2020-Aug-04 06:30 107 21.1
2020-Aug-04 06:01 107 21.1
2020-Aug-04 05:45 107 21.1
2020-Aug-04 05:31 107 21.1
2020-Aug-04 05:17 107 21.1
2020-Aug-04 05:00 117 21.1
2020-Aug-04 04:48 117 21.1
2020-Aug-04 04:31 119 21.7
2020-Aug-04 04:15 131 0 gusting 4 21.7
2020-Aug-04 04:01 123 0 gusting 4 21.7
2020-Aug-04 03:45 120 21.7
2020-Aug-04 03:30 122 21.7
2020-Aug-04 03:17 122 21.7
2020-Aug-04 03:00 112 21.1
2020-Aug-04 02:31 101 21.7
2020-Aug-04 02:15 269 21.7
2020-Aug-04 01:46 293 21.7
2020-Aug-04 01:30 127 21.7
2020-Aug-04 01:16 127 21.7
2020-Aug-04 01:01 127 21.7
2020-Aug-04 00:32 127 21.7
2020-Aug-04 00:16 134 21.7
2020-Aug-03 23:45 129 22.2
2020-Aug-03 23:30 122 22.2
2020-Aug-03 23:16 266 0 gusting 3 22.2
2020-Aug-03 23:00 120 22.2
2020-Aug-03 22:31 293 22.2
2020-Aug-03 22:15 293 22.2
2020-Aug-03 21:46 020 22.8
2020-Aug-03 21:16 328 23.9
2020-Aug-03 21:01 328 24.4
2020-Aug-03 20:45 328 24.4
2020-Aug-03 20:31 328 25.6
2020-Aug-03 20:15 108 27.2
2020-Aug-03 20:01 105 28.9
2020-Aug-03 19:45 104 28.9
2020-Aug-03 19:30 031 30.0
2020-Aug-03 19:16 108 30.0
2020-Aug-03 19:00 105 29.4